Home   Weather   Haldimand   Past weeks

Flag for Canada Past Weather in Haldimand, Ontario, Canada — Yesterday and Last 2 Weeks

Now
36 °F

Low clouds.


Feels Like: 23 °F
Forecast: 35 / 42 °F
Wind: 28 mph from Northeast

Location: Hamilton Airport

Current Time: Jan 22, 2017 at 11:57:45 pm

Latest Report: Jan 22, 2017 at 11:00 pm


Visibility: 8 mi

Pressure: 29.73 "Hg

Humidity: 93%

Dew Point: 34 °F

Location of HaldimandLocation

Past Weather in Haldimand — Graph

°F

Haldimand Temperature Yesterday

Maximum temperature yesterday: 41 °F (at 11:00 am)
Minimum temperature yesterday: 36 °F (at 12:05 am)
Average temperature yesterday: 38 °F

High & Low Weather Summary for the Past Weeks

 TemperatureHumidityPressure
High54 °F (Jan 12, 4:00 am)100% (Jan 10, 1:30 pm)30.79 "Hg (Jan 10, 1:30 pm)
Low7 °F (Jan 8, 6:00 pm)48% (Jan 8, 1:00 pm)29.49 "Hg (Jan 11, 12:00 am)
Average30 °F87%30.10 "Hg
* Reported Jan 7 11:00 pm — Jan 22 11:00 pm, Haldimand, Weather by CustomWeather, © 2017

Note: Actual official high and low records may vary slightly from our data, if they occured in-between our weather recording intervals... More about our weather records

Advertising

Haldimand Weather History for the Previous 24 Hours

Scroll right to see more
 ConditionsComfort  
Time TempWeatherWind HumidityBarometerVisibility
11:00 pm
Sun, Jan 22
36 °FLow clouds.28 mph93%29.73 "Hg8 mi
10:00 pm36 °FLow clouds.29 mph100%29.72 "Hg10 mi
9:00 pm36 °FLow clouds.29 mph100%29.73 "Hg9 mi
8:21 pm36 °FLow clouds.26 mph100%29.73 "Hg8 mi
7:00 pm37 °FDrizzle. Fog.25 mph100%29.71 "Hg0 mi
6:32 pm37 °FDrizzle. Fog.25 mph100%29.71 "Hg0 mi
6:00 pm37 °FDrizzle. Fog.25 mph100%29.71 "Hg1 mi
5:23 pm37 °FFog.24 mph100%29.69 "Hg0 mi
4:00 pm37 °FFog.17 mph100%29.69 "Hg0 mi
3:00 pm37 °FFog.15 mph100%29.69 "Hg0 mi
2:00 pm39 °FFog.17 mph100%29.69 "Hg0 mi
1:00 pm39 °FFog.20 mph100%29.69 "Hg0 mi
12:00 pm39 °FFog.17 mph100%29.72 "Hg0 mi
11:00 am37 °FFog.16 mph100%29.74 "Hg0 mi
10:00 am37 °FFog.15 mph100%29.73 "Hg0 mi
9:00 am37 °FFog.14 mph100%29.72 "Hg0 mi
8:00 am37 °FFog.15 mph100%29.68 "Hg0 mi
7:00 am37 °FFog.13 mph100%29.68 "Hg0 mi
6:00 am37 °FFog.12 mph100%29.68 "Hg0 mi
5:00 am37 °FFog.9 mph100%29.69 "Hg0 mi
4:00 am37 °FFog.10 mph100%29.70 "Hg0 mi
3:00 am37 °FFog.8 mph100%29.71 "Hg0 mi
2:00 am37 °FFog.6 mph100%29.70 "Hg0 mi
1:00 am37 °FFog.8 mph100%29.70 "Hg0 mi
12:00 am37 °FFog.9 mph100%29.70 "Hg0 mi
11:00 pm
Sat, Jan 21
37 °FFog.12 mph100%29.71 "Hg0 mi
Weather by CustomWeather, © 2017

See weather overviewHow to use our weather pages